Location: Newark
(53.2053°N, 5.8147°E)
Time: 21:36:12
(UTC+00:00)

Envisat - Visible Passes

Search period start: 23 October 2019 00:00
Search period end: 02 November 2019 00:00
Orbit: 764 x 766 km, 98.1° (Epoch: 23 October)

Date Brightness Start Highest point End Pass type
(mag) Time Alt. Az. Time Alt. Az. Time Alt. Az.
23 Oct 3.0 17:22:04 10° SSE 17:27:09 86° ENE 17:32:17 10° NNW visible
23 Oct 5.8 19:03:34 10° SW 19:06:53 17° W 19:10:12 10° NW visible
24 Oct 6.0 05:25:24 10° NE 05:29:05 20° E 05:32:43 10° SE visible
24 Oct 4.8 18:25:09 10° SSW 18:29:41 32° W 18:34:15 10° NNW visible
25 Oct 3.6 17:47:40 10° S 17:52:42 61° WSW 17:57:46 10° NNW visible
25 Oct 6.3 19:31:53 10° W 19:32:48 10° W 19:33:44 10° WNW visible
26 Oct 3.0 17:10:51 10° SSE 17:15:54 72° ENE 17:21:00 10° NNW visible
26 Oct 5.6 18:51:41 10° SW 18:55:28 21° W 18:59:16 10° NW visible
27 Oct 6.1 05:14:31 10° NE 05:17:39 16° E 05:20:46 10° SE visible
27 Oct 4.5 18:13:36 10° SSW 18:18:20 39° W 18:23:07 10° NNW visible
28 Oct 3.2 17:36:19 10° S 17:41:24 74° WSW 17:46:31 10° NNW visible
28 Oct 6.1 19:19:01 10° WSW 19:21:20 13° W 19:23:41 10° NW visible
29 Oct 5.6 05:39:17 10° NE 05:43:29 25° E 05:47:40 10° SSE visible
29 Oct 3.0 16:59:40 10° SSE 17:04:39 60° ENE 17:09:40 10° N visible
29 Oct 5.3 18:39:56 10° SW 18:44:04 25° W 18:48:15 10° NW visible
30 Oct 6.3 05:03:49 10° NE 05:06:12 13° E 05:08:36 10° ESE visible
30 Oct 4.1 18:02:06 10° S 18:07:00 47° W 18:11:55 10° NNW visible
31 Oct 3.0 17:25:02 10° SSE 17:30:07 89° WSW 17:35:15 10° NNW visible
31 Oct 5.9 19:06:50 10° WSW 19:09:55 16° W 19:13:00 10° NW visible
01 Nov 5.9 05:28:15 10° NE 05:32:05 21° E 05:35:54 10° SE visible
01 Nov 3.2 16:48:33 10° SE 16:53:26 50° ENE 16:58:21 10° N visible
01 Nov 4.9 18:28:15 10° SSW 18:32:41 30° W 18:37:09 10° NNW visible
